Amelia, Virginia, United States
Lat: 37.37N, Lon: 77.92W
Wx Zone: VAZ068
Local Info
Past Weather Observations for Monday, February 23, 2015

NOTE: This archive is for the closest National Weather Service station to Amelia. Information may differ from the station used for current weather conditions.

Click here for Long-term Archive

Time Weather Temperature Dewpoint Humidity Pressure Winds Precip Visibility
23:55
Clear
25°F / -4°C °F / -18°C 33% 30.39 in
(1029 mb)
NNE 11.5 mph
(NNE 19 kph)
- 10SM
23:35
Clear
25°F / -4°C °F / -18°C 33% 30.39 in
(1029 mb)
N 8.1 mph
(N 13 kph)
- 10SM
23:15
Clear
27°F / -3°C °F / -18°C 31% 30.39 in
(1029 mb)
NNE 10.4 mph
(NNE 17 kph)
- 10SM
22:55
Clear
27°F / -3°C 1°F / -17°C 33% 30.39 in
(1029 mb)
NNE 9.2 mph
(NNE 15 kph)
- 10SM
22:35
Clear
27°F / -3°C 1°F / -17°C 33% 30.39 in
(1029 mb)
NE 12.7 mph
(NE 20 kph)
- 10SM
22:15
Clear
28°F / -2°C 1°F / -17°C 31% 30.39 in
(1029 mb)
N 8.1 mph
(N 13 kph)
- 10SM
21:55
Clear
28°F / -2°C 3°F / -16°C 34% 30.39 in
(1029 mb)
NE 10.4 mph
(NE 17 kph)
- 10SM
21:35
Clear
28°F / -2°C 1°F / -17°C 31% 30.39 in
(1029 mb)
N 9.2 mph
(N 15 kph)
- 10SM
21:15
Clear
30°F / -1°C 1°F / -17°C 29% 30.39 in
(1029 mb)
NNE 9.2 mph
(NNE 15 kph)
- 10SM
20:55
Clear
30°F / -1°C 5°F / -15°C 34% 30.39 in
(1029 mb)
NNE 10.4 mph
(NNE 17 kph)
- 10SM
20:35
Clear
30°F / -1°C 5°F / -15°C 34% 30.39 in
(1029 mb)
NNE 9.2 mph
(NNE 15 kph)
- 10SM
20:15
Clear
30°F / -1°C 5°F / -15°C 34% 30.39 in
(1029 mb)
NNE 6.9 mph
(NNE 11 kph)
- 10SM
19:55
Clear
30°F / -1°C 5°F / -15°C 34% 30.39 in
(1029 mb)
NE 9.2 mph
(NE 15 kph)
- 10SM
19:35
Clear
32°F / 0°C 5°F / -15°C 32% 30.36 in
(1028 mb)
NE 15 mph
(NE 24 kph)
- 10SM
19:15
Clear
32°F / 0°C 7°F / -14°C 34% 30.36 in
(1028 mb)
NNE 11.5 mph
(NNE 19 kph)
- 10SM
18:55
Clear
32°F / 0°C 9°F / -13°C 37% 30.36 in
(1028 mb)
N 5.8 mph
(N 9 kph)
- 10SM
18:35
Clear
32°F / 0°C 9°F / -13°C 37% 30.36 in
(1028 mb)
N 9.2 mph
(N 15 kph)
- 10SM
18:15
Clear
32°F / 0°C 9°F / -13°C 37% 30.36 in
(1028 mb)
N 11.5 mph
(N 19 kph)
- 10SM
17:55
Clear
34°F / 1°C 14°F / -10°C 44% 30.33 in
(1027 mb)
NNE 12.7 mph
(NNE 20 kph)
- 10SM
17:35
Clear
34°F / 1°C 14°F / -10°C 44% 30.33 in
(1027 mb)
NNE 9.2 mph
(NNE 15 kph)
- 10SM
17:15
Clear
34°F / 1°C 16°F / -9°C 48% 30.3 in
(1026 mb)
NE 12.7 mph
(NE 20 kph)
- 10SM
16:55
Partly Cloudy
34°F / 1°C 18°F / -8°C 51% 30.3 in
(1026 mb)
NE 10.4 mph
(NE 17 kph)
- 10SM
16:35
Overcast
34°F / 1°C 18°F / -8°C 51% 30.3 in
(1026 mb)
NNE 10.4 mph
(NNE 17 kph)
- 10SM
16:15
Overcast
34°F / 1°C 19°F / -7°C 56% 30.3 in
(1026 mb)
NE 11.5 mph
(NE 19 kph)
- 10SM
15:55
Overcast
36°F / 2°C 18°F / -8°C 48% 30.3 in
(1026 mb)
N 10.4 mph
(N 17 kph)
- 10SM
15:35
Overcast
36°F / 2°C 19°F / -7°C 52% 30.27 in
(1025 mb)
N 12.7 mph
(N 20 kph)
- 10SM
15:15
Overcast
36°F / 2°C 19°F / -7°C 52% 30.27 in
(1025 mb)
N 10.4 mph
(N 17 kph)
- 10SM
14:55
Overcast
37°F / 3°C 21°F / -6°C 52% 30.27 in
(1025 mb)
N 16.1 mph
(N 26 kph)
- 10SM
14:35
Overcast
37°F / 3°C 21°F / -6°C 52% 30.27 in
(1025 mb)
N 12.7 mph
(N 20 kph)
- 10SM
14:15
Overcast
39°F / 4°C 23°F / -5°C 52% 30.27 in
(1025 mb)
NNE 13.8 mph
(NNE 22 kph)
- 10SM
13:55
Overcast
39°F / 4°C 25°F / -4°C 56% 30.27 in
(1025 mb)
NE 16.1 mph
(NE 26 kph)
- 10SM
13:35
Mostly Cloudy
41°F / 5°C 25°F / -4°C 53% 30.27 in
(1025 mb)
NNE 12.7 mph
(NNE 20 kph)
- 10SM
13:15
Mostly Cloudy
41°F / 5°C 27°F / -3°C 57% 30.27 in
(1025 mb)
NNW 9.2 mph
(NNW 15 kph)
- 10SM
12:55
Mostly Cloudy
41°F / 5°C 25°F / -4°C 53% 30.27 in
(1025 mb)
N 12.7 mph
(N 20 kph)
- 10SM
12:35
Overcast
39°F / 4°C 27°F / -3°C 61% 30.27 in
(1025 mb)
NE 15 mph
(NE 24 kph)
- 10SM
12:15
Overcast
39°F / 4°C 27°F / -3°C 61% 30.3 in
(1026 mb)
NE 15 mph
(NE 24 kph)
- 10SM
11:55
Overcast
39°F / 4°C 27°F / -3°C 61% 30.3 in
(1026 mb)
NE 13.8 mph
(NE 22 kph)
- 10SM
11:35
Overcast
39°F / 4°C 27°F / -3°C 61% 30.3 in
(1026 mb)
N 11.5 mph
(N 19 kph)
- 10SM
11:15
Overcast
39°F / 4°C 28°F / -2°C 65% 30.3 in
(1026 mb)
NE 12.7 mph
(NE 20 kph)
- 10SM
10:55
Overcast
39°F / 4°C 28°F / -2°C 65% 30.3 in
(1026 mb)
NE 11.5 mph
(NE 19 kph)
- 10SM
10:35
Overcast
39°F / 4°C 28°F / -2°C 65% 30.3 in
(1026 mb)
NNE 9.2 mph
(NNE 15 kph)
- 10SM
10:15
Overcast
39°F / 4°C 28°F / -2°C 65% 30.3 in
(1026 mb)
NNE 12.7 mph
(NNE 20 kph)
- 10SM
09:55
Overcast
39°F / 4°C 28°F / -2°C 65% 30.3 in
(1026 mb)
NNE 11.5 mph
(NNE 19 kph)
- 10SM
09:35
Overcast
37°F / 3°C 30°F / -1°C 75% 30.3 in
(1026 mb)
NE 12.7 mph
(NE 20 kph)
- 10SM
09:15
Overcast
Light Snow
37°F / 3°C 30°F / -1°C 75% 30.3 in
(1026 mb)
NNE 8.1 mph
(NNE 13 kph)
- 7SM
08:55
Overcast
Light Snow
37°F / 3°C 30°F / -1°C 75% 30.3 in
(1026 mb)
N 9.2 mph
(N 15 kph)
- 10SM
08:35
Overcast
37°F / 3°C 30°F / -1°C 75% 30.3 in
(1026 mb)
NE 10.4 mph
(NE 17 kph)
- 10SM
08:15
Overcast
39°F / 4°C 30°F / -1°C 70% 30.3 in
(1026 mb)
NNE 10.4 mph
(NNE 17 kph)
- 10SM
07:55
Overcast
39°F / 4°C 32°F / 0°C 75% 30.27 in
(1025 mb)
NNE 11.5 mph
(NNE 19 kph)
- 10SM
07:35
Overcast
37°F / 3°C 32°F / 0°C 81% 30.27 in
(1025 mb)
NNE 8.1 mph
(NNE 13 kph)
- 10SM
07:15
Overcast
39°F / 4°C 32°F / 0°C 75% 30.24 in
(1024 mb)
NNE 10.4 mph
(NNE 17 kph)
- 10SM
06:55
Overcast
39°F / 4°C 32°F / 0°C 75% 30.24 in
(1024 mb)
NE 10.4 mph
(NE 17 kph)
- 10SM
06:35
Overcast
39°F / 4°C 34°F / 1°C 81% 30.24 in
(1024 mb)
NE 9.2 mph
(NE 15 kph)
- 10SM
06:15
Overcast
39°F / 4°C 34°F / 1°C 81% 30.24 in
(1024 mb)
NE 8.1 mph
(NE 13 kph)
- 10SM
05:55
Overcast
39°F / 4°C 34°F / 1°C 81% 30.24 in
(1024 mb)
NE 9.2 mph
(NE 15 kph)
- 10SM
05:35
Overcast
39°F / 4°C 34°F / 1°C 81% 30.21 in
(1023 mb)
NE 9.2 mph
(NE 15 kph)
- 10SM
05:15
Overcast
39°F / 4°C 36°F / 2°C 87% 30.21 in
(1023 mb)
NE 6.9 mph
(NE 11 kph)
- 10SM
04:55
Overcast
39°F / 4°C 36°F / 2°C 87% 30.21 in
(1023 mb)
NNE 6.9 mph
(NNE 11 kph)
- 10SM
04:35
Overcast
39°F / 4°C 36°F / 2°C 87% 30.24 in
(1024 mb)
NNE 4.6 mph
(NNE 7 kph)
- 10SM
04:15
Overcast
39°F / 4°C 36°F / 2°C 87% 30.21 in
(1023 mb)
NNE 4.6 mph
(NNE 7 kph)
- 10SM
03:55
Overcast
39°F / 4°C 37°F / 3°C 93% 30.21 in
(1023 mb)
N 4.6 mph
(N 7 kph)
- 10SM
03:35
Overcast
Fog And Mist
37°F / 3°C 36°F / 2°C 93% 30.21 in
(1023 mb)
N 4.6 mph
(N 7 kph)
- 4SM
03:15
Overcast
37°F / 3°C 37°F / 3°C 100% 30.21 in
(1023 mb)
Calm - 7SM
02:55
Overcast
37°F / 3°C 37°F / 3°C 100% 30.21 in
(1023 mb)
Calm - 7SM
02:35
Overcast
Fog And Mist
36°F / 2°C 36°F / 2°C 100% 30.21 in
(1023 mb)
Calm - 5SM
02:15
Overcast
36°F / 2°C 36°F / 2°C 100% 30.21 in
(1023 mb)
Calm - 7SM
01:55
Overcast
Fog And Mist
36°F / 2°C 34°F / 1°C 93% 30.21 in
(1023 mb)
Calm - 5SM
01:35
Overcast
Fog And Mist
36°F / 2°C 34°F / 1°C 93% 30.21 in
(1023 mb)
Calm - 5SM
01:15
Overcast
Fog And Mist
36°F / 2°C 34°F / 1°C 93% 30.21 in
(1023 mb)
Calm - 5SM
00:55
Overcast
34°F / 1°C 34°F / 1°C 100% 30.21 in
(1023 mb)
Calm - 7SM
00:35
Overcast
Fog And Mist
34°F / 1°C 34°F / 1°C 100% 30.21 in
(1023 mb)
Calm - 5SM
00:15
Overcast
Fog And Mist
34°F / 1°C 34°F / 1°C 100% 30.21 in
(1023 mb)
Calm - 4SM
Time Weather Temperature Dewpoint Humidity Pressure Winds Precip Visibility


Weather for websites

WeatherForYou.com, LLC is not responsible for any damages or problems caused by this service. Current weather conditions are obtained from the closest station including government and personal stations which may have varying degrees of accuracy. Weather forecasts are derived from the NOAA NDFD. Like all things, this site belongs to Jesus Christ... He just trusts me to maintain it. If you have any questions or comments email webmaster@weatherforyou.com

Copyright © 2015, WeatherForYou.com LLC. All rights reserved.